sat.trackr.live / text

‹ back to catalog

STARLINK-36983

NORAD 68323 · 2026-059C

PAYLOAD ACTIVE UNKNOWN

§ Identity

Operator
Country
US
Launch date
2026-03-22
Launch site
AFETR
Launch vehicle
Mass (kg)
RCS (m²)

Purposes: comms

External: N2YO · Heavens-Above · Gunter

§ Orbital elements

Epoch: 2026-05-25T04:00:03.998880Z

Period
93.59 min
Inclination
53.1604°
Eccentricity
0.0001020
Mean motion
15.38588565 rev/d
Perigee alt
449.6 km
Apogee alt
451.0 km
Semi-major
6,828.4 km
B*
-1.0669e-1
RAAN
348.8989°
Arg perigee
134.1335°
Mean anomaly
194.5665°
Rev number
587

§ Raw data

STARLINK-369831 68323U 26059C   26145.16671295 -.03621491  00000+0 -10669+0 0  99972 68323  53.1604 348.8989 0001020 134.1335 194.5665 15.38588565  5875

JSON: /api/v1/satellites/68323 · /tle

For live sub-satellite position, see the globe view (requires WebGL).

§ Visibility from observer

Set your observer location to see the next 7 days of passes ≥ 10°. The values pass through the URL so the page stays shareable.

No JS? Fill the form by hand. The geolocation button needs JavaScript.